FW7198 Weather Reports


time (UTC)temp
F
wind
direction
speed
knots
gust
knots
rain 1hr
in
rain 24hr
in
rain mn
in
humidity
%
barometer
mb
20260504081558 47 0 0.0 0.0 0.00 0.00 0.00 84 1017.9
20260504060109 51 0 0.0 1.7 0.00 0.00 0.00 77 1018.6
20260504044556 51 0 0.0 2.6 0.00 0.00 0.00 73 1018.4
20260504043059 52 0 0.0 0.0 0.00 0.00 0.00 72 1018.5
20260504041552 52 0 0.0 0.0 0.00 0.00 0.00 71 1018.5
20260504040054 53 0 0.0 0.0 0.00 0.00 0.00 70 1018.6
20260504034604 54 0 0.0 0.0 0.00 0.00 0.00 68 1018.6
20260504033054 54 0 0.0 0.0 0.00 0.00 0.00 67 1018.7
20260504031546 55 0 0.0 0.0 0.00 0.00 0.00 65 1018.7
20260504030055 55 0 0.0 0.9 0.00 0.00 0.00 64 1018.7
20260504024553 56 0 0.0 0.0 0.00 0.00 0.00 61 1018.7
20260504023054 57 0 0.0 0.0 0.00 0.00 0.00 60 1018.5
20260504021553 57 0 0.0 0.0 0.00 0.00 0.00 58 1018.4
20260504020056 58 0 0.0 1.7 0.00 0.00 0.00 56 1018.1
20260504014559 58 0 0.0 0.0 0.00 0.00 0.00 54 1018.0
20260504013113 60 0 0.0 1.7 0.00 0.00 0.00 52 1017.8
20260504011548 61 0 0.0 0.0 0.00 0.00 0.00 49 1017.7
20260504010048 63 0 0.0 0.0 0.00 0.00 0.00 46 1017.4
20260504004550 64 0 0.0 0.0 0.00 0.00 0.00 44 1017.3
20260504003051 66 0 0.0 0.0 0.00 0.00 0.00 42 1017.3
20260504001551 68 0 0.0 0.0 0.00 0.00 0.00 40 1017.2
20260504000052 69 0 0.0 3.5 0.00 0.00 0.00 38 1017.1
20260503234549 70 0 0.0 7.0 0.00 0.00 0.00 35 1017.0
20260503233049 71 303 0.0 3.5 0.00 0.00 0.00 36 1017.0
20260503231546 71 271 1.7 7.8 0.00 0.00 0.00 35 1016.9
20260503230047 71 304 1.7 8.7 0.00 0.00 0.00 34 1017.1
20260503224552 72 285 0.9 8.7 0.00 0.00 0.00 34 1017.2
20260503223048 72 281 3.5 7.8 0.00 0.00 0.00 31 1017.1
20260503221559 73 280 1.7 7.8 0.00 0.00 0.00 34 1017.1
20260503220046 73 286 0.9 7.8 0.00 0.00 0.00 32 1017.1
20260503214550 73 243 3.5 7.8 0.00 0.00 0.00 31 1017.2
20260503213054 73 281 0.9 9.6 0.00 0.00 0.00 34 1017.4
20260503211550 73 251 2.6 8.7 0.00 0.00 0.00 34 1017.4
20260503210054 73 331 1.7 9.6 0.00 0.00 0.00 37 1017.4
20260503204614 74 333 2.6 9.6 0.00 0.00 0.00 35 1017.2
20260503203100 73 291 0.9 5.2 0.00 0.00 0.00 35 1017.6
20260503201553 73 323 2.6 7.8 0.00 0.00 0.00 36 1018.1
20260503200053 73 283 3.5 9.6 0.00 0.00 0.00 36 1018.2
20260503194609 72 315 1.7 6.1 0.00 0.00 0.00 34 1018.6
20260503193115 72 263 2.6 7.8 0.00 0.00 0.00 35 1018.7
20260503191616 72 278 1.7 7.8 0.00 0.00 0.00 34 1019.0
20260503190058 72 154 1.7 7.8 0.00 0.00 0.00 34 1019.2
20260503184600 72 284 2.6 6.1 0.00 0.00 0.00 30 1019.6
20260503183046 71 133 1.7 7.8 0.00 0.00 0.00 33 1019.7
20260503181554 70 138 1.7 9.6 0.00 0.00 0.00 34 1019.8
20260503180057 69 143 0.9 6.1 0.00 0.00 0.00 39 1019.8
20260503174555 69 267 1.7 5.2 0.00 0.00 0.00 37 1019.8
20260503173055 69 284 4.3 7.8 0.00 0.00 0.00 37 1020.0
20260503171553 68 291 3.5 6.1 0.00 0.00 0.00 38 1020.0
20260503170106 68 268 0.9 4.3 0.00 0.00 0.00 42 1020.2
20260503160104 66 167 0.0 2.6 0.00 0.00 0.00 47 1020.8